Starlink 32180

operational
NORAD ID: 60374 Int'l Des: 2024-138 Owner: SPXS Country: US Constellation: starlink
LEOCIRCULAR

Über Starlink 32180

Beschreibung wird geladen...

Live-Position

3D-Globus wird geladen...

Nächste Überflüge

Höhenverlauf

Altitude vs Time

uPlot chart will show altitude changes over time

Zweizeiliger Elementsatz

1 60374U 24138V 25305.98265937 .00000682 00000-0 35179-4 0 9997
2 60374 53.1602 182.8865 0001250 92.5307 267.5837 15.30181666 71071
Epoch: 1. Nov. 2025 • Age: 48 hours

Aktueller Status

Höhe 490.0 km
Geschwindigkeit 7.62 km/s
Subsatellitenpunkt -42.17°S, 2.07°W
Startdatum 4. Aug. 2024
Alter 1.2 years
Typ internet

Technische Details

Klassifizierung Payload
Masse 730.00 kg
Trockenmasse 700.00 kg
Gesamtmasse 730.00 kg
Länge 0.30 m
Durchmesser 4.10 m
Spannweite 29.00 m
Form Box + pan
Hersteller SPXS
Bus-Typ Starlink V2M
Phasenstatus In Orbit
Besitzer/Staat SPXS/US

Große Konstellationen

Loading constellations...